STARLINK-2153 (48009 NORAD) Tracking and Keplerian Element Data

This shows tracking and keplerian element data for the satellite.

Feedback or suggestion? Click here.




ElementValue
Catalog48009
NameSTARLINK-2153
Epoch Orbit195
Epoch Day173.91668981
Epoch Year2021
RAAN121.4619
Inclination53.0485
Eccentricity0.0001564
Argument of Perigee61.7932
Mean Anonmoly7.6
Mean Motion15.06394989
Decay Rate-1.721E-05
L11 48009U 21024AJ 21173.91668981 -.00001721 00000-0 -96681-4 0 9999
L22 48009 53.0485 121.4619 0001564 61.7932 7.6000 15.06394989 1958

Live tracking and technical data element details for STARLINK-2153 (NORAD 48009). STARLINK-2153 can be tracked NOW for your location showing map with azimuth and elevation plus other details from your city location.

Track the satellite on the map from your city or location and see movement details for azimuth, elevation, latitude, longitude, range, height, and movement on the map or in text.







IsCatalogInMostPopularTable: catalog: 48009, numindb: 45
Update: records affected: 1



GetName: 48009 STARLINK-2153

Hit Count: updated at: Thu, 24 Jun 2021 03:20:14 GMT